DW5861 Weather Reports


Display with metric or nautical units.
time (UTC)temp
F
wind
direction
speed
MPH
gust
MPH
rain 1hr
in
rain 24hr
in
rain mn
in
humidity
%
barometer
mb
20260902200025 76 171 10.0 10.0 0.12 3.13 3.04 94 1012.8
20260902195504 76 171 10.0 10.0 0.13 3.13 3.04 94 1012.7
20260902195004 76 171 10.0 10.0 0.12 3.11 3.02 94 1012.9
20260902194504 76 171 10.0 10.0 0.12 3.11 3.02 94 1013.0
20260902194004 76 171 10.0 10.0 0.12 3.11 3.02 94 1013.1
20260902193504 76 171 10.0 10.0 0.12 3.11 3.02 94 1013.2
20260902193004 76 171 10.0 10.0 0.12 3.11 3.02 94 1013.2
20260902192504 76 171 10.0 10.0 0.11 3.09 3.00 94 1013.1
20260902192004 76 171 10.0 10.0 0.10 3.07 2.98 94 1013.1
20260902191504 75 171 10.0 10.0 0.08 3.05 2.96 94 1013.0
20260902191004 75 171 10.0 10.0 0.08 3.04 2.95 94 1013.0
20260902190504 75 171 10.0 10.0 0.07 3.02 2.93 94 1013.2
20260902190004 75 171 10.0 10.0 0.07 3.01 2.92 94 1013.0
20260902185504 75 171 10.0 10.0 0.07 3.00 2.91 94 1013.1
20260902185004 75 171 10.0 10.0 0.07 2.99 2.90 94 1013.1
20260902184504 75 171 10.0 10.0 0.07 2.99 2.90 94 1013.1
20260902184004 75 171 10.0 10.0 0.08 2.99 2.90 94 1013.0
20260902183504 75 171 10.0 10.0 0.09 2.99 2.90 94 1013.0
20260902183025 74 171 10.0 10.0 0.09 2.99 2.90 93 1013.0
20260902182504 74 171 10.0 10.0 0.09 2.98 2.89 93 1012.9
20260902182004 74 171 10.0 10.0 0.09 2.97 2.88 93 1012.9
20260902181504 74 171 10.0 10.0 0.10 2.97 2.88 93 1012.9
20260902181004 74 171 10.0 10.0 0.10 2.96 2.87 93 1012.9
20260902180504 74 171 10.0 10.0 0.11 2.95 2.86 93 1012.9
20260902180006 74 171 10.0 10.0 0.13 2.94 2.85 93 1012.9
20260902175504 74 171 10.0 10.0 0.15 2.93 2.84 93 1012.9
20260902175004 74 171 10.0 10.0 0.18 2.92 2.83 93 1013.0
20260902174504 74 171 10.0 10.0 0.28 2.92 2.83 93 1013.1
20260902174004 74 171 10.0 10.0 0.35 2.91 2.82 93 1013.1
20260902173504 74 171 10.0 10.0 0.46 2.90 2.81 93 1013.1
20260902173004 74 171 10.0 10.0 0.49 2.90 2.81 93 1013.1
20260902172504 74 171 10.0 10.0 0.49 2.89 2.80 93 1013.2
20260902172025 74 171 10.0 10.0 0.50 2.88 2.79 93 1013.2
20260902171504 74 171 10.0 10.0 0.50 2.87 2.78 93 1013.3
20260902171004 74 171 10.0 10.0 0.51 2.86 2.77 93 1013.4
20260902170504 74 171 10.0 10.0 0.51 2.84 2.75 93 1013.5
20260902170004 74 171 10.0 10.0 0.50 2.81 2.72 93 1013.6
20260902165504 74 171 9.0 10.0 0.48 2.78 2.69 93 1013.8
20260902165025 74 180 8.0 12.0 0.47 2.74 2.66 93 1013.8
20260902164504 74 183 7.0 12.0 0.38 2.64 2.55 93 1013.9
20260902164004 74 158 6.0 10.0 0.33 2.56 2.47 93 1014.1
20260902163504 75 121 4.0 6.0 0.27 2.44 2.35 93 1014.2
20260902163004 75 106 4.0 4.0 0.34 2.41 2.32 93 1014.2
20260902162504 75 93 3.0 4.0 0.41 2.40 2.31 93 1014.1
20260902162004 75 89 4.0 6.0 0.43 2.38 2.29 93 1014.1
20260902161504 75 89 5.0 6.0 0.45 2.37 2.28 93 1014.0
20260902161004 75 89 5.0 6.0 0.46 2.35 2.26 93 1013.9
20260902160504 75 107 6.0 12.0 0.49 2.33 2.24 93 1013.7
20260902160006 74 137 6.0 12.0 0.56 2.31 2.22 93 1013.8
20260902155504 74 140 4.0 12.0 0.60 2.30 2.21 93 1013.7
20260902155003 74 149 4.0 9.0 0.61 2.27 2.18 93 1013.6
20260902154506 74 154 4.0 9.0 0.65 2.26 2.17 93 1013.6
20260902154004 74 182 3.0 7.0 0.74 2.23 2.14 93 1013.6
20260902153504 74 200 5.0 14.0 0.78 2.17 2.08 93 1013.5
20260902153004 74 19 6.0 14.0 0.70 2.07 1.98 93 1013.6
20260902152504 74 7 6.0 7.0 0.64 1.99 1.91 93 1013.6
20260902152004 74 7 6.0 13.0 0.63 1.95 1.86 93 1013.4
20260902151504 74 160 10.0 13.0 0.62 1.92 1.83 93 1013.3
20260902151004 74 172 13.0 13.0 0.60 1.89 1.80 92 1013.1
20260902150504 74 172 13.0 13.0 0.57 1.84 1.75 92 1013.1
20260902150025 74 168 9.0 13.0 0.49 1.75 1.66 92 1012.9
20260902145504 75 155 6.0 14.0 0.46 1.70 1.61 93 1012.9
20260902145003 75 151 6.0 14.0 0.43 1.66 1.57 93 1012.7
20260902144504 75 151 7.0 17.0 0.40 1.61 1.52 92 1012.6
20260902144004 75 154 9.0 20.0 0.30 1.49 1.40 92 1012.6
20260902143504 75 160 8.0 20.0 0.22 1.39 1.30 92 1012.5
20260902143004 75 153 6.0 11.0 0.22 1.37 1.28 92 1012.4
20260902142503 75 141 5.0 13.0 0.22 1.35 1.26 92 1012.2
20260902142004 75 145 5.0 13.0 0.21 1.32 1.23 92 1012.1
20260902141504 75 152 6.0 12.0 0.25 1.30 1.21 92 1012.1
20260902141004 75 158 5.0 12.0 0.28 1.29 1.20 92 1012.1
20260902140503 75 157 5.0 13.0 0.29 1.27 1.18 92 1012.0
20260902140004 75 158 6.0 13.0 0.29 1.26 1.17 92 1011.6
20260902135524 75 155 5.0 10.0 0.29 1.24 1.15 92 1011.6
20260902135004 75 144 4.0 10.0 0.29 1.23 1.14 92 1011.5
20260902134504 75 129 4.0 11.0 0.27 1.21 1.12 92 1011.5
20260902134006 75 128 4.0 11.0 0.26 1.19 1.10 92 1011.6
20260902133504 75 136 5.0 12.0 0.26 1.17 1.08 92 1011.4
20260902133004 75 147 6.0 13.0 0.25 1.15 1.06 92 1011.4
20260902132524 75 144 6.0 13.0 0.25 1.13 1.04 92 1011.4
20260902132025 75 139 6.0 17.0 0.24 1.11 1.02 92 1011.5
20260902131525 75 141 7.0 17.0 0.18 1.05 0.97 92 1011.4
20260902131004 75 139 6.0 16.0 0.15 1.01 0.92 92 1011.5
20260902130524 75 133 5.0 16.0 0.13 0.98 0.89 92 1011.6
20260902130024 75 135 6.0 15.0 0.13 0.97 0.88 92 1011.5
20260902125504 75 136 5.0 15.0 0.12 0.95 0.86 92 1011.5
20260902125003 75 123 4.0 11.0 0.12 0.94 0.85 92 1011.4
20260902124504 75 136 5.0 16.0 0.13 0.94 0.85 92 1011.3
20260902124003 75 136 5.0 17.0 0.12 0.93 0.84 92 1011.4
20260902123503 75 121 4.0 17.0 0.11 0.91 0.82 92 1011.3
20260902123024 75 121 4.0 13.0 0.11 0.90 0.81 93 1011.3
20260902122525 75 115 5.0 10.0 0.10 0.88 0.80 93 1011.3
20260902122004 75 105 4.0 10.0 0.10 0.87 0.78 93 1011.2
20260902121503 75 102 4.0 14.0 0.11 0.87 0.78 93 1011.4
20260902121003 74 101 3.0 14.0 0.11 0.86 0.77 92 1011.6
20260902120524 74 91 3.0 10.0 0.11 0.85 0.76 92 1011.8
20260902120004 74 93 3.0 10.0 0.11 0.84 0.75 92 1011.6
20260902115527 74 99 3.0 9.0 0.11 0.83 0.75 92 1011.5
20260902115024 74 99 3.0 10.0 0.11 0.82 0.74 92 1011.5
20260902114503 74 92 4.0 12.0 0.12 0.81 0.72 92 1011.5
20260902114004 74 82 4.0 12.0 0.14 0.81 0.72 92 1011.4
20260902113504 74 88 3.0 10.0 0.14 0.80 0.71 92 1011.4
20260902113024 74 98 3.0 10.0 0.14 0.79 0.70 92 1011.4
20260902112503 74 105 4.0 9.0 0.15 0.78 0.69 92 1011.5
20260902112004 74 116 4.0 9.0 0.16 0.77 0.68 92 1011.4
20260902111504 74 112 3.0 10.0 0.16 0.76 0.67 92 1011.5
20260902111024 74 99 3.0 11.0 0.17 0.75 0.66 92 1011.4
20260902110504 74 106 3.0 11.0 0.18 0.74 0.65 92 1011.5
20260902110005 74 101 4.0 10.0 0.19 0.73 0.64 92 1011.7
20260902105525 74 98 3.0 8.0 0.20 0.72 0.63 92 1011.9
20260902105003 74 113 3.0 7.0 0.21 0.71 0.62 92 1012.0
20260902104504 74 114 3.0 12.0 0.21 0.69 0.60 92 1012.0
20260902104004 74 96 3.0 12.0 0.21 0.67 0.58 92 1012.0
20260902103504 75 104 3.0 7.0 0.21 0.66 0.57 92 1012.1
20260902103024 75 114 3.0 10.0 0.22 0.65 0.56 92 1012.1
20260902102503 75 88 3.0 10.0 0.21 0.63 0.54 92 1012.0
20260902102003 75 78 2.0 8.0 0.20 0.61 0.52 92 1012.0
20260902101503 75 88 3.0 7.0 0.20 0.60 0.51 92 1012.0
20260902101003 75 76 3.0 7.0 0.20 0.58 0.49 92 1012.0
20260902100504 75 78 3.0 8.0 0.20 0.56 0.47 92 1012.1
20260902100025 75 96 3.0 8.0 0.20 0.54 0.45 92 1012.1
20260902095503 75 110 3.0 9.0 0.19 0.52 0.43 92 1012.0
20260902095024 75 95 3.0 9.0 0.19 0.50 0.41 92 1012.0
20260902094503 76 85 3.0 8.0 0.19 0.48 0.39 92 1012.0
20260902094003 76 86 2.0 8.0 0.19 0.46 0.37 92 1012.1
20260902093504 76 68 3.0 7.0 0.19 0.45 0.36 92 1012.0
20260902093003 76 67 3.0 8.0 0.18 0.43 0.34 92 1012.1
20260902092503 76 65 3.0 8.0 0.18 0.42 0.33 92 1012.1
20260902092024 76 77 2.0 8.0 0.17 0.41 0.32 92 1012.1
20260902091503 76 158 2.0 5.0 0.17 0.40 0.31 92 1012.3
20260902091003 76 134 2.0 5.0 0.16 0.38 0.29 92 1012.3
20260902090503 76 55 2.0 6.0 0.15 0.36 0.27 92 1012.2
20260902090024 76 53 2.0 6.0 0.15 0.34 0.25 92 1012.2
20260902085524 76 41 2.0 5.0 0.15 0.33 0.24 92 1012.3
20260902085003 76 40 2.0 5.0 0.14 0.31 0.22 91 1012.3
20260902084503 76 59 2.0 6.0 0.12 0.29 0.20 91 1012.3
20260902084004 76 65 3.0 8.0 0.11 0.27 0.18 91 1012.4
20260902083503 76 65 2.0 9.0 0.11 0.26 0.17 91 1012.5
20260902083004 76 47 2.0 9.0 0.12 0.25 0.16 91 1012.6
20260902082503 76 32 2.0 6.0 0.11 0.24 0.15 91 1012.5
20260902082003 76 61 2.0 4.0 0.12 0.24 0.15 91 1012.6
20260902081504 76 80 2.0 6.0 0.11 0.23 0.14 91 1012.7
20260902081024 76 82 2.0 7.0 0.10 0.22 0.13 91 1012.6
20260902080503 76 90 2.0 7.0 0.09 0.21 0.12 91 1012.7
20260902080004 76 89 2.0 6.0 0.07 0.19 0.10 90 1012.8
20260902075503 76 93 2.0 6.0 0.06 0.18 0.09 90 1012.9
20260902075003 76 80 2.0 6.0 0.05 0.17 0.08 90 1013.0
20260902074524 76 88 2.0 7.0 0.05 0.17 0.08 90 1013.0
20260902074003 76 96 2.0 7.0 0.04 0.16 0.07 90 1012.9
20260902073503 77 77 2.0 6.0 0.03 0.15 0.06 90 1013.0
20260902073003 77 73 2.0 6.0 0.01 0.13 0.04 90 1012.9
20260902072503 77 71 3.0 11.0 0.01 0.13 0.04 90 1012.8
20260902072003 77 75 3.0 11.0 0.00 0.12 0.03 90 1012.8
20260902071503 77 90 3.0 8.0 0.00 0.12 0.03 90 1012.8
20260902071003 77 82 2.0 8.0 0.00 0.12 0.03 90 1012.8
20260902070504 77 64 1.0 5.0 0.00 0.12 0.03 91 1012.7
20260902070004 77 45 2.0 4.0 0.00 0.12 0.03 91 1012.8
20260902065503 77 42 2.0 4.0 0.00 0.12 0.03 91 1012.7
20260902065003 77 43 2.0 6.0 0.00 0.12 0.03 91 1012.8
20260902064503 77 49 2.0 7.0 0.00 0.12 0.03 91 1012.8
20260902064003 77 56 2.0 7.0 0.01 0.12 0.03 90 1012.8
20260902063524 77 58 2.0 5.0 0.01 0.12 0.03 90 1012.9
20260902063003 77 64 1.0 4.0 0.02 0.12 0.03 90 1012.9
20260902062503 77 43 1.0 4.0 0.02 0.12 0.03 90 1012.9
20260902062003 77 45 2.0 8.0 0.02 0.12 0.03 90 1013.0
20260902061524 77 46 2.0 8.0 0.02 0.12 0.03 90 1013.0
20260902061003 77 42 2.0 6.0 0.03 0.12 0.03 90 1013.2
20260902060504 78 45 2.0 6.0 0.03 0.12 0.03 90 1013.2
20260902060003 78 30 2.0 6.0 0.03 0.12 0.03 90 1013.3
20260902055503 78 15 1.0 3.0 0.03 0.12 0.03 89 1013.4
20260902055003 78 48 2.0 7.0 0.04 0.12 0.03 89 1013.4
20260902054503 78 59 2.0 7.0 0.04 0.12 0.03 89 1013.2
20260902054003 78 49 2.0 9.0 0.03 0.11 0.02 89 1013.3
20260902053503 78 34 2.0 9.0 0.03 0.11 0.02 89 1013.3
20260902053003 78 9 1.0 6.0 0.02 0.10 0.01 88 1013.3
20260902052524 78 60 2.0 6.0 0.02 0.10 0.01 88 1013.3
20260902052003 79 63 2.0 6.0 0.02 0.10 0.01 88 1013.3
20260902051503 79 56 2.0 6.0 0.02 0.10 0.01 88 1013.3
20260902051003 79 54 3.0 9.0 0.01 0.09 0.00 87 1013.3
20260902050504 80 51 3.0 9.0 0.01 0.09 0.00 87 1013.4
20260902050006 80 46 3.0 10.0 0.01 0.09 0.00 86 1013.4
20260902045503 81 82 3.0 10.0 0.01 0.09 0.09 85 1013.5
20260902045003 81 115 3.0 9.0 0.00 0.08 0.08 85 1013.4
20260902044503 81 100 2.0 6.0 0.00 0.08 0.08 85 1013.4
20260902044003 81 86 2.0 7.0 0.00 0.08 0.08 84 1013.3
20260902043503 81 40 2.0 7.0 0.00 0.08 0.08 84 1013.1
20260902043003 81 18 2.0 5.0 0.00 0.08 0.08 84 1013.0
20260902042503 81 27 2.0 6.0 0.00 0.08 0.08 84 1013.0
20260902042003 81 20 3.0 6.0 0.00 0.08 0.08 84 1013.1
20260902041503 81 14 2.0 7.0 0.00 0.08 0.08 84 1013.1
20260902041003 81 20 3.0 8.0 0.00 0.08 0.08 84 1013.2
20260902040503 81 28 3.0 8.0 0.00 0.08 0.08 84 1013.3
20260902040024 81 28 2.0 7.0 0.00 0.08 0.08 84 1013.3
20260902035503 81 20 2.0 7.0 0.00 0.08 0.08 84 1013.3
20260902035003 81 24 2.0 6.0 0.00 0.08 0.08 84 1013.3
20260902034524 81 13 2.0 6.0 0.00 0.08 0.08 83 1013.1
20260902034003 81 13 1.0 4.0 0.00 0.08 0.08 83 1013.1
20260902033503 81 23 2.0 4.0 0.00 0.08 0.08 83 1013.2
20260902033024 81 4 2.0 4.0 0.00 0.08 0.08 83 1013.2
20260902032503 81 22 2.0 6.0 0.00 0.08 0.08 82 1013.2
20260902032003 81 34 2.0 7.0 0.00 0.08 0.08 82 1013.2
20260902031503 81 16 2.0 7.0 0.00 0.08 0.08 82 1013.3
20260902031024 81 8 2.0 4.0 0.00 0.08 0.08 82 1013.2
20260902030503 81 7 2.0 4.0 0.00 0.08 0.08 82 1013.1
20260902030003 81 8 2.0 6.0 0.00 0.08 0.08 82 1013.0
20260902025503 81 34 2.0 6.0 0.00 0.08 0.08 81 1013.0
20260902025024 81 62 2.0 6.0 0.00 0.08 0.08 81 1012.8
20260902024503 81 60 2.0 7.0 0.00 0.08 0.08 81 1012.8
20260902024003 81 35 2.0 7.0 0.00 0.08 0.08 81 1012.8
20260902023503 81 20 2.0 6.0 0.00 0.08 0.08 81 1012.8
20260902023003 81 11 2.0 6.0 0.00 0.08 0.08 80 1012.6
20260902022504 81 1 2.0 5.0 0.00 0.08 0.08 80 1012.7
20260902022004 82 10 2.0 5.0 0.00 0.08 0.08 81 1012.7
20260902021525 82 27 1.0 5.0 0.00 0.08 0.08 80 1012.6
20260902021025 82 35 1.0 5.0 0.00 0.08 0.08 80 1012.5
20260902020504 82 54 2.0 6.0 0.00 0.08 0.08 80 1012.5
20260902020004 82 53 2.0 6.0 0.00 0.08 0.08 80 1012.4
20260902015525 82 45 1.0 5.0 0.00 0.08 0.08 79 1012.4
20260902015004 82 20 1.0 4.0 0.00 0.08 0.08 80 1012.5
20260902014504 82 28 2.0 5.0 0.00 0.08 0.08 80 1012.4
20260902014025 82 36 2.0 6.0 0.00 0.08 0.08 79 1012.4
20260902013504 82 27 1.0 6.0 0.00 0.08 0.08 78 1012.3
20260902013025 82 44 1.0 4.0 0.00 0.08 0.08 79 1012.3
20260902012504 82 53 1.0 4.0 0.00 0.08 0.08 79 1012.2
20260902012025 82 21 1.0 3.0 0.00 0.08 0.08 79 1012.2
20260902011504 82 15 1.0 2.0 0.00 0.08 0.08 79 1012.0
20260902011004 82 51 1.0 4.0 0.00 0.08 0.08 78 1011.9
20260902010504 83 43 1.0 4.0 0.00 0.08 0.08 77 1012.0
20260902010025 83 23 2.0 6.0 0.00 0.08 0.08 78 1011.9
20260902005525 83 23 2.0 8.0 0.00 0.08 0.08 77 1011.9
20260902005004 83 15 1.0 4.0 0.00 0.08 0.08 77 1011.9
20260902004504 84 24 2.0 5.0 0.00 0.08 0.08 76 1012.0
20260902004004 84 22 2.0 5.0 0.00 0.08 0.08 75 1012.1
20260902003504 84 22 2.0 5.0 0.00 0.08 0.08 75 1012.1
20260902003004 84 49 2.0 4.0 0.00 0.08 0.08 74 1012.2
20260902002504 85 45 2.0 6.0 0.00 0.08 0.08 73 1012.3
20260902002004 85 36 2.0 7.0 0.00 0.08 0.08 73 1012.3
20260902001525 85 43 3.0 7.0 0.00 0.08 0.08 72 1012.5
20260902001004 85 43 2.0 8.0 0.00 0.08 0.08 72 1012.6
20260902000504 85 48 2.0 8.0 0.00 0.08 0.08 72 1012.5
20260902000025 86 44 3.0 9.0 0.00 0.08 0.08 71 1012.4
20260901235504 86 31 3.0 9.0 0.00 0.08 0.08 71 1012.4
20260901235025 86 25 2.0 8.0 0.00 0.08 0.08 71 1012.3
20260901234504 86 53 2.0 8.0 0.00 0.08 0.08 72 1012.3
20260901234004 86 52 3.0 8.0 0.00 0.08 0.08 71 1012.4
20260901233504 86 48 3.0 10.0 0.00 0.08 0.08 72 1012.5
20260901233004 86 42 3.0 10.0 0.00 0.08 0.08 72 1012.4
20260901232504 85 40 3.0 8.0 0.00 0.08 0.08 73 1012.4
20260901232004 85 38 3.0 8.0 0.00 0.08 0.08 73 1012.3
20260901231504 85 27 3.0 7.0 0.00 0.08 0.08 73 1012.4
20260901231004 85 42 2.0 7.0 0.00 0.08 0.08 74 1012.4
20260901230504 85 60 2.0 9.0 0.00 0.08 0.08 74 1012.4
20260901230004 85 39 2.0 9.0 0.00 0.08 0.08 76 1012.3
20260901225504 85 34 2.0 5.0 0.00 0.08 0.08 75 1012.3
20260901225025 84 32 2.0 5.0 0.00 0.08 0.08 76 1012.3
20260901224504 84 40 2.0 4.0 0.00 0.08 0.08 78 1012.4
20260901224004 84 55 1.0 4.0 0.00 0.08 0.08 78 1012.5
20260901223525 83 47 1.0 3.0 0.00 0.08 0.08 80 1012.5
20260901223005 83 353 1.0 4.0 0.00 0.08 0.08 83 1012.5
20260901222525 83 355 1.0 4.0 0.00 0.08 0.08 85 1012.4
20260901222004 82 19 1.0 3.0 0.00 0.08 0.08 85 1012.5
20260901221504 82 357 1.0 2.0 0.00 0.08 0.08 87 1012.6
20260901221004 82 360 1.0 5.0 0.00 0.08 0.08 86 1012.6
20260901220504 82 27 2.0 5.0 0.00 0.08 0.08 87 1012.8
20260901220025 82 17 1.0 5.0 0.00 0.08 0.08 86 1012.8
20260901215504 82 336 1.0 2.0 0.00 0.08 0.08 88 1012.9
20260901215004 82 322 1.0 2.0 0.01 0.08 0.08 88 1012.8
20260901214504 82 340 1.0 3.0 0.07 0.08 0.08 87 1013.0
20260901214025 82 12 1.0 5.0 0.07 0.08 0.08 87 1013.1
20260901213504 82 109 2.0 6.0 0.07 0.08 0.08 87 1013.2
20260901213004 82 131 2.0 6.0 0.07 0.08 0.08 88 1013.4
20260901212504 82 151 1.0 3.0 0.07 0.08 0.08 89 1013.5
20260901212004 81 201 1.0 3.0 0.07 0.08 0.08 89 1013.5
20260901211504 81 185 1.0 3.0 0.07 0.08 0.08 88 1013.6
20260901211004 81 103 1.0 2.0 0.07 0.08 0.08 88 1013.6
20260901210525 81 82 1.0 3.0 0.07 0.08 0.08 87 1013.7
20260901210025 81 30 1.0 3.0 0.08 0.08 0.08 86 1013.7
20260901205504 81 94 3.0 11.0 0.08 0.08 0.08 85 1013.6
20260901205004 82 111 3.0 11.0 0.07 0.07 0.07 83 1013.7
20260901204504 83 125 3.0 8.0 0.01 0.01 0.01 83 1013.9
20260901204004 83 170 2.0 5.0 0.01 0.01 0.01 84 1013.4
20260901203504 83 192 2.0 5.0 0.01 0.01 0.01 84 1013.2
20260901203004 83 183 2.0 4.0 0.01 0.01 0.01 85 1013.3
20260901202504 83 191 2.0 4.0 0.01 0.01 0.01 85 1013.3
20260901202004 83 195 2.0 4.0 0.01 0.01 0.01 84 1013.3
20260901201525 83 191 2.0 4.0 0.01 0.01 0.01 84 1013.5
20260901201004 83 189 3.0 6.0 0.01 0.01 0.01 84 1013.5
20260901200504 84 188 3.0 6.0 0.01 0.01 0.01 82 1013.5